Location: Bannatyne
(13.0833°N, 59.5333°W)
Time: 04:34:24
(UTC+00:00)

Vanguard 2 Rocket - Pass Details

Date: 29 January 2020
Orbit: 554 x 3326 km, 32.9° (Epoch: 07 April)

Event Time Altitude Azimuth Distance (km) Brightness Sun altitude
Rises 14:27:25 0° 297° (WNW) 4,132 9.9 49.8°
Reaches altitude 10° 14:29:44 10° 295° (WNW) 3,433 9.6 50.1°
Maximum altitude 14:38:53 71° 213° (SSW) 2,100 9.8 51.5°
Drops below altitude 10° 14:55:15 10° 132° (SE) 5,782 11.7 53.7°
Sets 15:00:28 0° 130° (SE) 7,062 11.9 54.4°
